Time,TemperatureF,DewpointF,PressureIn,WindDirection,WindDirectionDegrees,WindSpeedMPH,WindSpeedGustMPH,Humidity,HourlyPrecipIn,Conditions,Clouds,dailyrainin,SoftwareType,DateUTC
2013-03-09 00:00:00,26.6,23.0,29.49,WNW,292,2.0,2.0,80,0.00,,,0.00,Rainwise IP-100,2013-03-09 05:00:00,
2013-03-09 00:05:00,26.2,21.0,29.49,WNW,292,0.0,2.0,80,0.00,,,0.00,Rainwise IP-100,2013-03-09 05:05:00,
2013-03-09 00:10:00,25.6,21.0,29.50,WNW,292,0.0,0.0,81,0.00,,,0.00,Rainwise IP-100,2013-03-09 05:10:00,
2013-03-09 00:15:00,24.9,21.0,29.49,WNW,292,0.0,1.0,81,0.00,,,0.00,Rainwise IP-100,2013-03-09 05:15:00,
2013-03-09 00:20:00,24.3,21.0,29.49,WNW,292,0.0,0.0,81,0.00,,,0.00,Rainwise IP-100,2013-03-09 05:20:00,
2013-03-09 00:25:00,23.4,18.0,29.49,WNW,292,0.0,0.0,82,0.00,,,0.00,Rainwise IP-100,2013-03-09 05:25:00,
2013-03-09 00:28:00,23.2,18.0,29.49,WNW,292,0.0,0.0,82,0.00,,,0.00,Rainwise IP-100,2013-03-09 05:28:00,
2013-03-09 00:33:00,22.3,18.0,29.49,WNW,292,0.0,0.0,84,0.00,,,0.00,Rainwise IP-100,2013-03-09 05:33:00,
2013-03-09 00:38:00,21.6,18.0,29.49,WNW,292,0.0,0.0,87,0.00,,,0.00,Rainwise IP-100,2013-03-09 05:38:00,
2013-03-09 00:43:00,20.9,18.0,29.49,WNW,292,0.0,0.0,89,0.00,,,0.00,Rainwise IP-100,2013-03-09 05:43:00,
2013-03-09 00:48:00,20.5,18.0,29.49,WNW,292,0.0,0.0,89,0.00,,,0.00,Rainwise IP-100,2013-03-09 05:48:00,
2013-03-09 00:54:00,20.0,18.0,29.49,WNW,292,0.0,0.0,91,0.00,,,0.00,Rainwise IP-100,2013-03-09 05:54:00,
2013-03-09 00:59:00,19.9,18.0,29.50,WNW,292,0.0,0.0,92,0.00,,,0.00,Rainwise IP-100,2013-03-09 05:59:00,
2013-03-09 01:04:00,19.6,18.0,29.50,WNW,292,0.0,0.0,95,0.00,,,0.00,Rainwise IP-100,2013-03-09 06:04:00,
2013-03-09 01:09:00,19.5,18.0,29.49,WNW,292,0.0,0.0,95,0.00,,,0.00,Rainwise IP-100,2013-03-09 06:09:00,
2013-03-09 01:14:00,19.5,18.0,29.49,WNW,292,0.0,1.0,95,0.00,,,0.00,Rainwise IP-100,2013-03-09 06:14:00,
2013-03-09 01:19:00,19.2,21.0,29.49,WNW,292,0.0,0.0,96,0.00,,,0.00,Rainwise IP-100,2013-03-09 06:19:00,
2013-03-09 01:24:00,19.6,21.0,29.49,North,360,2.0,5.0,100,0.00,,,0.00,Rainwise IP-100,2013-03-09 06:24:00,
2013-03-09 01:29:00,22.0,23.0,29.49,NNW,337,2.0,5.0,99,0.00,,,0.00,Rainwise IP-100,2013-03-09 06:29:00,
2013-03-09 01:35:00,23.9,23.0,29.48,NNW,337,1.0,3.0,90,0.00,,,0.00,Rainwise IP-100,2013-03-09 06:35:00,
2013-03-09 01:40:00,24.3,21.0,29.48,NNW,337,1.0,3.0,86,0.00,,,0.00,Rainwise IP-100,2013-03-09 06:40:00,
2013-03-09 01:45:00,23.9,21.0,29.48,NNW,337,0.0,2.0,86,0.00,,,0.00,Rainwise IP-100,2013-03-09 06:45:00,
2013-03-09 01:50:00,23.3,18.0,29.48,NNW,337,0.0,0.0,87,0.00,,,0.00,Rainwise IP-100,2013-03-09 06:50:00,
2013-03-09 01:55:00,22.2,18.0,29.48,NNW,337,0.0,0.0,87,0.00,,,0.00,Rainwise IP-100,2013-03-09 06:55:00,
2013-03-09 02:00:00,21.2,18.0,29.48,NNW,337,0.0,0.0,90,0.00,,,0.00,Rainwise IP-100,2013-03-09 07:00:00,
2013-03-09 02:05:00,20.5,18.0,29.48,NNW,337,0.0,0.0,91,0.00,,,0.00,Rainwise IP-100,2013-03-09 07:05:00,
2013-03-09 02:11:00,20.1,18.0,29.48,NNW,337,0.0,0.0,93,0.00,,,0.00,Rainwise IP-100,2013-03-09 07:11:00,
2013-03-09 02:16:00,19.5,18.0,29.48,NNW,337,0.0,0.0,94,0.00,,,0.00,Rainwise IP-100,2013-03-09 07:16:00,
2013-03-09 02:21:00,19.2,21.0,29.48,NNW,337,0.0,0.0,96,0.00,,,0.00,Rainwise IP-100,2013-03-09 07:21:00,
2013-03-09 02:26:00,18.9,21.0,29.48,NNW,337,0.0,0.0,97,0.00,,,0.00,Rainwise IP-100,2013-03-09 07:26:00,
2013-03-09 02:31:00,18.8,21.0,29.48,NNW,337,0.0,0.0,98,0.00,,,0.00,Rainwise IP-100,2013-03-09 07:31:00,
2013-03-09 03:16:00,18.9,21.0,29.48,NNW,337,0.0,0.0,97,0.00,,,0.00,Rainwise IP-100,2013-03-09 08:16:00,
2013-03-09 03:21:00,20.1,21.0,29.47,NNW,337,0.0,1.0,100,0.00,,,0.00,Rainwise IP-100,2013-03-09 08:21:00,
2013-03-09 03:26:00,20.4,21.0,29.47,NNW,337,0.0,0.0,100,0.00,,,0.00,Rainwise IP-100,2013-03-09 08:26:00,
2013-03-09 03:31:00,20.9,21.0,29.47,NNW,337,1.0,4.0,100,0.00,,,0.00,Rainwise IP-100,2013-03-09 08:31:00,
2013-03-09 03:37:00,23.4,21.0,29.46,NW,315,3.0,5.0,95,0.00,,,0.00,Rainwise IP-100,2013-03-09 08:37:00,
2013-03-09 03:42:00,24.5,24.0,29.46,NNW,337,1.0,4.0,91,0.00,,,0.00,Rainwise IP-100,2013-03-09 08:42:00,
2013-03-09 03:47:00,24.9,23.0,29.46,NNW,337,1.0,4.0,89,0.00,,,0.00,Rainwise IP-100,2013-03-09 08:47:00,
2013-03-09 03:52:00,24.9,23.0,29.47,NNW,337,0.0,2.0,87,0.00,,,0.00,Rainwise IP-100,2013-03-09 08:52:00,
2013-03-09 03:57:00,24.2,21.0,29.47,NNW,337,0.0,3.0,88,0.00,,,0.00,Rainwise IP-100,2013-03-09 08:57:00,
2013-03-09 04:01:00,23.6,21.0,29.47,NNW,337,0.0,3.0,88,0.00,,,0.00,Rainwise IP-100,2013-03-09 09:01:00,
2013-03-09 04:06:00,22.6,21.0,29.47,NNW,337,0.0,0.0,90,0.00,,,0.00,Rainwise IP-100,2013-03-09 09:06:00,
2013-03-09 04:11:00,21.9,21.0,29.47,NNW,337,0.0,1.0,91,0.00,,,0.00,Rainwise IP-100,2013-03-09 09:11:00,
2013-03-09 04:16:00,21.3,18.0,29.49,NNW,337,0.0,2.0,92,0.00,,,0.00,Rainwise IP-100,2013-03-09 09:16:00,
2013-03-09 04:21:00,20.8,18.0,29.49,NNW,337,1.0,2.0,93,0.00,,,0.00,Rainwise IP-100,2013-03-09 09:21:00,
2013-03-09 04:26:00,19.9,18.0,29.49,NNW,337,0.0,1.0,94,0.00,,,0.00,Rainwise IP-100,2013-03-09 09:26:00,
2013-03-09 04:31:00,19.5,18.0,29.49,NNW,337,0.0,1.0,95,0.00,,,0.00,Rainwise IP-100,2013-03-09 09:31:00,
2013-03-09 04:37:00,19.0,21.0,29.49,NNW,337,0.0,0.0,99,0.00,,,0.00,Rainwise IP-100,2013-03-09 09:37:00,
2013-03-09 04:42:00,18.9,21.0,29.49,NNW,337,0.0,1.0,99,0.00,,,0.00,Rainwise IP-100,2013-03-09 09:42:00,
2013-03-09 05:15:00,18.9,21.0,29.49,NNW,337,9.0,0.0,99,0.00,,,0.00,Rainwise IP-100,2013-03-09 10:15:00,
2013-03-09 05:20:00,21.9,23.0,29.49,NNW,337,2.0,9.0,99,0.00,,,0.00,Rainwise IP-100,2013-03-09 10:20:00,
2013-03-09 05:26:00,22.6,21.0,29.48,NNW,337,0.0,2.0,93,0.00,,,0.00,Rainwise IP-100,2013-03-09 10:26:00,
2013-03-09 05:31:00,21.9,21.0,29.49,NNW,337,0.0,0.0,92,0.00,,,0.00,Rainwise IP-100,2013-03-09 10:31:00,
2013-03-09 05:36:00,21.1,18.0,29.49,NNW,337,0.0,0.0,93,0.00,,,0.00,Rainwise IP-100,2013-03-09 10:36:00,
2013-03-09 05:41:00,20.3,21.0,29.51,NNW,337,0.0,0.0,97,0.00,,,0.00,Rainwise IP-100,2013-03-09 10:41:00,
2013-03-09 05:46:00,20.1,21.0,29.51,NNW,337,3.0,5.0,100,0.00,,,0.00,Rainwise IP-100,2013-03-09 10:46:00,
2013-03-09 05:51:00,21.8,23.0,29.50,NW,315,4.0,6.0,97,0.00,,,0.00,Rainwise IP-100,2013-03-09 10:51:00,
2013-03-09 05:56:00,23.9,23.0,29.50,NNW,337,3.0,7.0,91,0.00,,,0.00,Rainwise IP-100,2013-03-09 10:56:00,
2013-03-09 06:01:00,25.2,23.0,29.50,NNW,337,4.0,6.0,87,0.00,,,0.00,Rainwise IP-100,2013-03-09 11:01:00,
2013-03-09 06:07:00,25.8,23.0,29.50,NW,315,2.0,6.0,84,0.00,,,0.00,Rainwise IP-100,2013-03-09 11:07:00,
2013-03-09 06:12:00,25.8,23.0,29.50,NW,315,3.0,5.0,84,0.00,,,0.00,Rainwise IP-100,2013-03-09 11:12:00,
2013-03-09 06:17:00,25.7,23.0,29.51,NW,315,2.0,5.0,84,0.00,,,0.00,Rainwise IP-100,2013-03-09 11:17:00,
2013-03-09 06:22:00,25.7,23.0,29.51,NNW,337,2.0,6.0,84,0.00,,,0.00,Rainwise IP-100,2013-03-09 11:22:00,
2013-03-09 06:27:00,25.7,23.0,29.51,NNW,337,7.0,7.0,84,0.00,,,0.00,Rainwise IP-100,2013-03-09 11:27:00,
2013-03-09 06:32:00,26.9,23.0,29.51,ESE,112,0.0,7.0,80,0.00,,,0.00,Rainwise IP-100,2013-03-09 11:32:00,
2013-03-09 06:37:00,27.5,23.0,29.51,NNW,337,1.0,7.0,79,0.00,,,0.00,Rainwise IP-100,2013-03-09 11:37:00,
2013-03-09 06:43:00,28.1,23.0,29.52,NW,315,3.0,6.0,78,0.00,,,0.00,Rainwise IP-100,2013-03-09 11:43:00,
2013-03-09 06:48:00,28.8,23.0,29.52,NW,315,5.0,7.0,77,0.00,,,0.00,Rainwise IP-100,2013-03-09 11:48:00,
2013-03-09 06:53:00,29.5,24.0,29.52,NNW,337,2.0,7.0,75,0.00,,,0.00,Rainwise IP-100,2013-03-09 11:53:00,
2013-03-09 06:58:00,30.2,23.0,29.52,North,360,4.0,7.0,73,0.00,,,0.00,Rainwise IP-100,2013-03-09 11:58:00,
2013-03-09 07:03:00,30.7,23.0,29.53,NNW,337,1.0,6.0,70,0.00,,,0.00,Rainwise IP-100,2013-03-09 12:03:00,
2013-03-09 07:08:00,31.1,23.0,29.53,North,360,6.0,6.0,70,0.00,,,0.00,Rainwise IP-100,2013-03-09 12:08:00,
2013-03-09 07:13:00,31.8,24.0,29.53,NE,45,1.0,6.0,70,0.00,,,0.00,Rainwise IP-100,2013-03-09 12:13:00,
2013-03-09 07:18:00,32.1,24.0,29.53,NNE,22,1.0,6.0,71,0.00,,,0.00,Rainwise IP-100,2013-03-09 12:18:00,
2013-03-09 07:24:00,32.3,24.0,29.54,ENE,67,2.0,3.0,72,0.00,,,0.00,Rainwise IP-100,2013-03-09 12:24:00,
2013-03-09 07:29:00,32.4,24.0,29.54,ENE,67,0.0,4.0,74,0.00,,,0.00,Rainwise IP-100,2013-03-09 12:29:00,
2013-03-09 07:34:00,32.9,26.0,29.54,ENE,67,1.0,2.0,72,0.00,,,0.00,Rainwise IP-100,2013-03-09 12:34:00,
2013-03-09 07:39:00,33.5,26.0,29.54,ESE,112,2.0,4.0,68,0.00,,,0.00,Rainwise IP-100,2013-03-09 12:39:00,
2013-03-09 07:44:00,33.9,24.0,29.54,ENE,67,3.0,5.0,66,0.00,,,0.00,Rainwise IP-100,2013-03-09 12:44:00,
2013-03-09 07:49:00,34.0,24.0,29.55,East,90,3.0,5.0,66,0.00,,,0.00,Rainwise IP-100,2013-03-09 12:49:00,
2013-03-09 07:54:00,34.3,24.0,29.55,NE,45,6.0,6.0,64,0.00,,,0.00,Rainwise IP-100,2013-03-09 12:54:00,
2013-03-09 08:00:00,34.5,23.0,29.55,ENE,67,4.0,6.0,62,0.00,,,0.00,Rainwise IP-100,2013-03-09 13:00:00,
2013-03-09 08:05:00,34.9,23.0,29.55,NE,45,3.0,8.0,61,0.00,,,0.00,Rainwise IP-100,2013-03-09 13:05:00,
2013-03-09 08:10:00,35.6,24.0,29.55,SE,135,3.0,6.0,61,0.00,,,0.00,Rainwise IP-100,2013-03-09 13:10:00,
2013-03-09 08:15:00,36.4,23.0,29.56,North,360,4.0,8.0,57,0.00,,,0.00,Rainwise IP-100,2013-03-09 13:15:00,
2013-03-09 08:20:00,36.9,24.0,29.56,NE,45,7.0,8.0,57,0.00,,,0.00,Rainwise IP-100,2013-03-09 13:20:00,
2013-03-09 08:25:00,37.5,23.0,29.56,NNE,22,5.0,8.0,52,0.00,,,0.00,Rainwise IP-100,2013-03-09 13:25:00,
2013-03-09 08:30:00,38.1,21.0,29.56,NNW,337,6.0,12.0,49,0.00,,,0.00,Rainwise IP-100,2013-03-09 13:30:00,
2013-03-09 08:35:00,38.2,23.0,29.56,ENE,67,6.0,12.0,50,0.00,,,0.00,Rainwise IP-100,2013-03-09 13:35:00,
2013-03-09 08:41:00,38.6,21.0,29.56,East,90,6.0,10.0,47,0.00,,,0.00,Rainwise IP-100,2013-03-09 13:41:00,
2013-03-09 08:46:00,39.2,21.0,29.56,NNW,337,3.0,9.0,47,0.00,,,0.00,Rainwise IP-100,2013-03-09 13:46:00,
2013-03-09 08:51:00,39.8,21.0,29.56,North,360,8.0,9.0,45,0.00,,,0.00,Rainwise IP-100,2013-03-09 13:51:00,
2013-03-09 08:56:00,40.5,23.0,29.56,NE,45,6.0,9.0,45,0.00,,,0.00,Rainwise IP-100,2013-03-09 13:56:00,
2013-03-09 09:01:00,40.7,21.0,29.56,North,360,7.0,12.0,43,0.00,,,0.00,Rainwise IP-100,2013-03-09 14:01:00,
2013-03-09 09:06:00,40.8,21.0,29.56,NNE,22,9.0,13.0,43,0.00,,,0.00,Rainwise IP-100,2013-03-09 14:06:00,
2013-03-09 09:11:00,41.3,18.0,29.56,NW,315,7.0,10.0,40,0.00,,,0.00,Rainwise IP-100,2013-03-09 14:11:00,
2013-03-09 09:17:00,41.8,21.0,29.56,NNE,22,9.0,12.0,41,0.00,,,0.00,Rainwise IP-100,2013-03-09 14:17:00,
2013-03-09 09:22:00,41.6,21.0,29.56,NE,45,8.0,13.0,40,0.00,,,0.00,Rainwise IP-100,2013-03-09 14:22:00,
2013-03-09 09:27:00,42.0,21.0,29.56,NE,45,3.0,10.0,41,0.00,,,0.00,Rainwise IP-100,2013-03-09 14:27:00,
2013-03-09 09:32:00,42.8,21.0,29.57,East,90,3.0,8.0,41,0.00,,,0.00,Rainwise IP-100,2013-03-09 14:32:00,
2013-03-09 09:37:00,43.3,21.0,29.57,NE,45,6.0,9.0,38,0.00,,,0.00,Rainwise IP-100,2013-03-09 14:37:00,
2013-03-09 09:42:00,43.2,18.0,29.57,NE,45,5.0,9.0,37,0.00,,,0.00,Rainwise IP-100,2013-03-09 14:42:00,
2013-03-09 09:47:00,43.5,21.0,29.57,NE,45,7.0,9.0,38,0.00,,,0.00,Rainwise IP-100,2013-03-09 14:47:00,
2013-03-09 09:52:00,43.9,21.0,29.57,NNE,22,4.0,10.0,38,0.00,,,0.00,Rainwise IP-100,2013-03-09 14:52:00,
2013-03-09 09:58:00,44.7,21.0,29.57,North,360,7.0,9.0,36,0.00,,,0.00,Rainwise IP-100,2013-03-09 14:58:00,
2013-03-09 10:03:00,45.6,21.0,29.57,NE,45,5.0,8.0,35,0.00,,,0.00,Rainwise IP-100,2013-03-09 15:03:00,
2013-03-09 10:08:00,45.4,21.0,29.57,ENE,67,6.0,9.0,37,0.00,,,0.00,Rainwise IP-100,2013-03-09 15:08:00,
2013-03-09 10:13:00,45.2,18.0,29.58,NE,45,4.0,9.0,33,0.00,,,0.00,Rainwise IP-100,2013-03-09 15:13:00,
2013-03-09 10:18:00,45.7,21.0,29.57,NE,45,9.0,9.0,34,0.00,,,0.00,Rainwise IP-100,2013-03-09 15:18:00,
2013-03-09 10:23:00,45.8,18.0,29.58,ENE,67,6.0,13.0,32,0.00,,,0.00,Rainwise IP-100,2013-03-09 15:23:00,
2013-03-09 10:28:00,45.8,18.0,29.58,NE,45,6.0,11.0,33,0.00,,,0.00,Rainwise IP-100,2013-03-09 15:28:00,
2013-03-09 10:34:00,46.5,18.0,29.58,NW,315,5.0,13.0,32,0.00,,,0.00,Rainwise IP-100,2013-03-09 15:34:00,
2013-03-09 10:39:00,47.2,18.0,29.58,NE,45,6.0,10.0,30,0.00,,,0.00,Rainwise IP-100,2013-03-09 15:39:00,
2013-03-09 10:44:00,47.3,18.0,29.58,NE,45,7.0,10.0,29,0.00,,,0.00,Rainwise IP-100,2013-03-09 15:44:00,
2013-03-09 10:49:00,47.4,18.0,29.58,NNW,337,6.0,10.0,29,0.00,,,0.00,Rainwise IP-100,2013-03-09 15:49:00,
2013-03-09 10:54:00,47.9,18.0,29.58,NNE,22,4.0,11.0,28,0.00,,,0.00,Rainwise IP-100,2013-03-09 15:54:00,
2013-03-09 10:59:00,48.4,18.0,29.58,NW,315,10.0,10.0,28,0.00,,,0.00,Rainwise IP-100,2013-03-09 15:59:00,
2013-03-09 11:04:00,48.8,18.0,29.58,North,360,3.0,10.0,28,0.00,,,0.00,Rainwise IP-100,2013-03-09 16:04:00,
2013-03-09 11:09:00,48.9,16.0,29.58,NE,45,6.0,11.0,27,0.00,,,0.00,Rainwise IP-100,2013-03-09 16:09:00,
2013-03-09 11:15:00,49.0,16.0,29.58,NE,45,5.0,13.0,26,0.00,,,0.00,Rainwise IP-100,2013-03-09 16:15:00,
2013-03-09 11:20:00,49.4,18.0,29.58,North,360,2.0,10.0,28,0.00,,,0.00,Rainwise IP-100,2013-03-09 16:20:00,
2013-03-09 11:25:00,49.5,16.0,29.58,NE,45,6.0,12.0,25,0.00,,,0.00,Rainwise IP-100,2013-03-09 16:25:00,
2013-03-09 11:30:00,49.9,16.0,29.58,North,360,6.0,11.0,26,0.00,,,0.00,Rainwise IP-100,2013-03-09 16:30:00,
2013-03-09 11:35:00,51.3,21.0,29.58,NNE,22,8.0,8.0,28,0.00,,,0.00,Rainwise IP-100,2013-03-09 16:35:00,
2013-03-09 11:40:00,51.2,16.0,29.59,NW,315,6.0,9.0,23,0.00,,,0.00,Rainwise IP-100,2013-03-09 16:40:00,
2013-03-09 11:45:00,51.4,14.0,29.58,WNW,292,2.0,13.0,22,0.00,,,0.00,Rainwise IP-100,2013-03-09 16:45:00,
2013-03-09 11:51:00,51.5,16.0,29.59,NNE,22,8.0,10.0,23,0.00,,,0.00,Rainwise IP-100,2013-03-09 16:51:00,
2013-03-09 11:56:00,51.5,14.0,29.58,NNE,22,10.0,13.0,21,0.00,,,0.00,Rainwise IP-100,2013-03-09 16:56:00,
2013-03-09 12:01:00,52.3,14.0,29.58,NNW,337,5.0,10.0,21,0.00,,,0.00,Rainwise IP-100,2013-03-09 17:01:00,
2013-03-09 12:06:00,52.5,16.0,29.58,NNW,337,3.0,11.0,22,0.00,,,0.00,Rainwise IP-100,2013-03-09 17:06:00,
2013-03-09 12:11:00,52.9,14.0,29.58,NW,315,6.0,9.0,21,0.00,,,0.00,Rainwise IP-100,2013-03-09 17:11:00,
2013-03-09 12:16:00,51.9,16.0,29.58,NNE,22,6.0,16.0,22,0.00,,,0.00,Rainwise IP-100,2013-03-09 17:16:00,
2013-03-09 12:21:00,52.5,14.0,29.58,North,360,5.0,10.0,21,0.00,,,0.00,Rainwise IP-100,2013-03-09 17:21:00,
2013-03-09 12:26:00,52.9,16.0,29.58,NE,45,5.0,7.0,23,0.00,,,0.00,Rainwise IP-100,2013-03-09 17:26:00,
2013-03-09 12:32:00,52.7,14.0,29.57,NE,45,7.0,10.0,21,0.00,,,0.00,Rainwise IP-100,2013-03-09 17:32:00,
2013-03-09 12:37:00,52.3,14.0,29.57,NNW,337,6.0,16.0,20,0.00,,,0.00,Rainwise IP-100,2013-03-09 17:37:00,
2013-03-09 12:42:00,52.6,14.0,29.57,NW,315,6.0,12.0,19,0.00,,,0.00,Rainwise IP-100,2013-03-09 17:42:00,
2013-03-09 12:47:00,53.3,14.0,29.57,NE,45,3.0,7.0,20,0.00,,,0.00,Rainwise IP-100,2013-03-09 17:47:00,
2013-03-09 12:52:00,53.3,16.0,29.57,NE,45,3.0,9.0,21,0.00,,,0.00,Rainwise IP-100,2013-03-09 17:52:00,
2013-03-09 12:57:00,53.6,16.0,29.57,ENE,67,3.0,10.0,22,0.00,,,0.00,Rainwise IP-100,2013-03-09 17:57:00,
2013-03-09 13:02:00,53.6,11.0,29.56,WNW,292,6.0,10.0,17,0.00,,,0.00,Rainwise IP-100,2013-03-09 18:02:00,
2013-03-09 13:08:00,53.6,14.0,29.56,NNW,337,6.0,11.0,19,0.00,,,0.00,Rainwise IP-100,2013-03-09 18:08:00,
2013-03-09 13:13:00,53.7,14.0,29.57,North,360,7.0,13.0,20,0.00,,,0.00,Rainwise IP-100,2013-03-09 18:13:00,
2013-03-09 13:18:00,53.4,16.0,29.56,NNE,22,9.0,11.0,21,0.00,,,0.00,Rainwise IP-100,2013-03-09 18:18:00,
2013-03-09 13:23:00,53.5,16.0,29.56,NE,45,9.0,9.0,22,0.00,,,0.00,Rainwise IP-100,2013-03-09 18:23:00,
2013-03-09 13:28:00,53.7,16.0,29.56,NNE,22,1.0,12.0,23,0.00,,,0.00,Rainwise IP-100,2013-03-09 18:28:00,
2013-03-09 13:33:00,53.9,16.0,29.56,ENE,67,6.0,9.0,21,0.00,,,0.00,Rainwise IP-100,2013-03-09 18:33:00,
2013-03-09 13:38:00,54.1,16.0,29.56,NE,45,3.0,9.0,21,0.00,,,0.00,Rainwise IP-100,2013-03-09 18:38:00,
2013-03-09 13:43:00,54.4,14.0,29.56,ENE,67,5.0,9.0,18,0.00,,,0.00,Rainwise IP-100,2013-03-09 18:43:00,
2013-03-09 13:49:00,54.0,14.0,29.56,NE,45,6.0,10.0,19,0.00,,,0.00,Rainwise IP-100,2013-03-09 18:49:00,
2013-03-09 13:54:00,54.0,14.0,29.56,NNW,337,6.0,9.0,19,0.00,,,0.00,Rainwise IP-100,2013-03-09 18:54:00,
2013-03-09 13:59:00,54.6,16.0,29.56,ENE,67,2.0,7.0,21,0.00,,,0.00,Rainwise IP-100,2013-03-09 18:59:00,
2013-03-09 14:04:00,55.2,16.0,29.56,NNE,22,8.0,9.0,20,0.00,,,0.00,Rainwise IP-100,2013-03-09 19:04:00,
2013-03-09 14:09:00,54.9,14.0,29.56,NNE,22,5.0,9.0,19,0.00,,,0.00,Rainwise IP-100,2013-03-09 19:09:00,
2013-03-09 14:14:00,54.7,14.0,29.56,NNE,22,5.0,9.0,19,0.00,,,0.00,Rainwise IP-100,2013-03-09 19:14:00,
2013-03-09 14:19:00,54.7,14.0,29.56,NNE,22,6.0,9.0,19,0.00,,,0.00,Rainwise IP-100,2013-03-09 19:19:00,
2013-03-09 14:25:00,54.6,16.0,29.56,WNW,292,7.0,12.0,20,0.00,,,0.00,Rainwise IP-100,2013-03-09 19:25:00,
2013-03-09 14:30:00,54.9,16.0,29.56,East,90,5.0,8.0,20,0.00,,,0.00,Rainwise IP-100,2013-03-09 19:30:00,
2013-03-09 14:35:00,54.5,16.0,29.56,North,360,6.0,10.0,20,0.00,,,0.00,Rainwise IP-100,2013-03-09 19:35:00,
2013-03-09 14:40:00,54.5,14.0,29.56,ENE,67,5.0,9.0,18,0.00,,,0.00,Rainwise IP-100,2013-03-09 19:40:00,
2013-03-09 14:45:00,54.4,14.0,29.56,NNE,22,5.0,12.0,19,0.00,,,0.00,Rainwise IP-100,2013-03-09 19:45:00,
2013-03-09 14:50:00,54.9,14.0,29.56,NW,315,4.0,7.0,19,0.00,,,0.00,Rainwise IP-100,2013-03-09 19:50:00,
2013-03-09 14:55:00,55.6,16.0,29.56,NE,45,9.0,9.0,19,0.00,,,0.00,Rainwise IP-100,2013-03-09 19:55:00,
2013-03-09 15:00:00,55.5,16.0,29.56,NE,45,2.0,9.0,19,0.00,,,0.00,Rainwise IP-100,2013-03-09 20:00:00,
2013-03-09 15:06:00,55.1,16.0,29.56,NE,45,4.0,8.0,21,0.00,,,0.00,Rainwise IP-100,2013-03-09 20:06:00,
2013-03-09 15:11:00,55.2,14.0,29.57,NE,45,9.0,10.0,18,0.00,,,0.00,Rainwise IP-100,2013-03-09 20:11:00,
2013-03-09 15:16:00,55.1,14.0,29.57,NE,45,5.0,9.0,19,0.00,,,0.00,Rainwise IP-100,2013-03-09 20:16:00,
2013-03-09 15:21:00,55.2,16.0,29.57,NNW,337,2.0,7.0,20,0.00,,,0.00,Rainwise IP-100,2013-03-09 20:21:00,
2013-03-09 15:26:00,54.9,16.0,29.57,North,360,3.0,9.0,20,0.00,,,0.00,Rainwise IP-100,2013-03-09 20:26:00,
2013-03-09 15:31:00,54.9,16.0,29.57,ENE,67,6.0,7.0,20,0.00,,,0.00,Rainwise IP-100,2013-03-09 20:31:00,
2013-03-09 15:36:00,54.7,16.0,29.57,East,90,0.0,10.0,21,0.00,,,0.00,Rainwise IP-100,2013-03-09 20:36:00,
2013-03-09 15:42:00,54.6,16.0,29.57,ENE,67,7.0,7.0,22,0.00,,,0.00,Rainwise IP-100,2013-03-09 20:42:00,
2013-03-09 15:47:00,54.9,18.0,29.58,NNE,22,5.0,7.0,22,0.00,,,0.00,Rainwise IP-100,2013-03-09 20:47:00,
2013-03-09 15:52:00,55.1,14.0,29.57,North,360,6.0,9.0,19,0.00,,,0.00,Rainwise IP-100,2013-03-09 20:52:00,
2013-03-09 15:57:00,55.6,14.0,29.58,North,360,4.0,8.0,17,0.00,,,0.00,Rainwise IP-100,2013-03-09 20:57:00,
2013-03-09 16:02:00,55.7,16.0,29.58,ENE,67,4.0,7.0,19,0.00,,,0.00,Rainwise IP-100,2013-03-09 21:02:00,
2013-03-09 16:07:00,55.4,21.0,29.58,NE,45,2.0,6.0,24,0.00,,,0.00,Rainwise IP-100,2013-03-09 21:07:00,
2013-03-09 16:12:00,55.4,16.0,29.58,NE,45,4.0,7.0,21,0.00,,,0.00,Rainwise IP-100,2013-03-09 21:12:00,
2013-03-09 16:17:00,55.2,16.0,29.58,NNE,22,5.0,6.0,21,0.00,,,0.00,Rainwise IP-100,2013-03-09 21:17:00,
2013-03-09 16:23:00,54.7,16.0,29.58,NE,45,2.0,7.0,22,0.00,,,0.00,Rainwise IP-100,2013-03-09 21:23:00,
2013-03-09 16:28:00,54.3,18.0,29.58,NE,45,1.0,7.0,23,0.00,,,0.00,Rainwise IP-100,2013-03-09 21:28:00,
2013-03-09 16:33:00,53.9,16.0,29.58,NE,45,3.0,7.0,22,0.00,,,0.00,Rainwise IP-100,2013-03-09 21:33:00,
2013-03-09 16:38:00,53.8,18.0,29.58,NE,45,3.0,7.0,23,0.00,,,0.00,Rainwise IP-100,2013-03-09 21:38:00,
2013-03-09 16:43:00,53.5,16.0,29.58,NE,45,4.0,7.0,23,0.00,,,0.00,Rainwise IP-100,2013-03-09 21:43:00,
2013-03-09 16:48:00,53.4,16.0,29.59,ENE,67,4.0,6.0,23,0.00,,,0.00,Rainwise IP-100,2013-03-09 21:48:00,
2013-03-09 16:53:00,53.3,16.0,29.59,NNE,22,2.0,5.0,23,0.00,,,0.00,Rainwise IP-100,2013-03-09 21:53:00,
2013-03-09 16:59:00,53.3,18.0,29.59,NE,45,0.0,6.0,24,0.00,,,0.00,Rainwise IP-100,2013-03-09 21:59:00,
2013-03-09 17:04:00,52.8,18.0,29.59,NNE,22,4.0,6.0,24,0.00,,,0.00,Rainwise IP-100,2013-03-09 22:04:00,
2013-03-09 17:09:00,52.5,18.0,29.59,NE,45,0.0,5.0,26,0.00,,,0.00,Rainwise IP-100,2013-03-09 22:09:00,
2013-03-09 17:14:00,52.2,21.0,29.59,NE,45,0.0,0.0,28,0.00,,,0.00,Rainwise IP-100,2013-03-09 22:14:00,
2013-03-09 17:19:00,51.6,23.0,29.59,NE,45,0.0,0.0,31,0.00,,,0.00,Rainwise IP-100,2013-03-09 22:19:00,
2013-03-09 17:24:00,49.9,21.0,29.59,NE,45,0.0,2.0,30,0.00,,,0.00,Rainwise IP-100,2013-03-09 22:24:00,
2013-03-09 17:29:00,48.5,18.0,29.58,NE,45,0.0,5.0,28,0.00,,,0.00,Rainwise IP-100,2013-03-09 22:29:00,
2013-03-09 17:34:00,47.5,18.0,29.58,NNE,22,1.0,2.0,29,0.00,,,0.00,Rainwise IP-100,2013-03-09 22:34:00,
2013-03-09 17:40:00,46.5,18.0,29.58,NE,45,0.0,5.0,32,0.00,,,0.00,Rainwise IP-100,2013-03-09 22:40:00,
2013-03-09 17:45:00,45.3,18.0,29.58,NE,45,0.0,1.0,34,0.00,,,0.00,Rainwise IP-100,2013-03-09 22:45:00,
2013-03-09 17:50:00,43.8,21.0,29.58,NE,45,0.0,0.0,38,0.00,,,0.00,Rainwise IP-100,2013-03-09 22:50:00,
2013-03-09 17:55:00,42.4,18.0,29.58,NE,45,0.0,0.0,37,0.00,,,0.00,Rainwise IP-100,2013-03-09 22:55:00,
2013-03-09 18:00:00,40.9,18.0,29.58,NE,45,0.0,0.0,40,0.00,,,0.00,Rainwise IP-100,2013-03-09 23:00:00,
2013-03-09 18:05:00,39.7,21.0,29.57,North,360,0.0,1.0,45,0.00,,,0.00,Rainwise IP-100,2013-03-09 23:05:00,
2013-03-09 18:10:00,39.3,21.0,29.58,NW,315,2.0,4.0,44,0.00,,,0.00,Rainwise IP-100,2013-03-09 23:10:00,
2013-03-09 18:16:00,40.1,18.0,29.57,NW,315,3.0,4.0,41,0.00,,,0.00,Rainwise IP-100,2013-03-09 23:16:00,
2013-03-09 18:21:00,40.2,18.0,29.58,NW,315,2.0,4.0,41,0.00,,,0.00,Rainwise IP-100,2013-03-09 23:21:00,
2013-03-09 18:26:00,40.1,18.0,29.58,NW,315,2.0,6.0,41,0.00,,,0.00,Rainwise IP-100,2013-03-09 23:26:00,
2013-03-09 18:31:00,39.4,18.0,29.58,NW,315,3.0,4.0,42,0.00,,,0.00,Rainwise IP-100,2013-03-09 23:31:00,
2013-03-09 18:36:00,39.8,21.0,29.58,West,270,5.0,6.0,42,0.00,,,0.00,Rainwise IP-100,2013-03-09 23:36:00,
2013-03-09 18:41:00,40.5,21.0,29.58,WSW,247,4.0,6.0,42,0.00,,,0.00,Rainwise IP-100,2013-03-09 23:41:00,
2013-03-09 18:46:00,40.8,21.0,29.58,West,270,3.0,6.0,42,0.00,,,0.00,Rainwise IP-100,2013-03-09 23:46:00,
2013-03-09 18:51:00,40.3,21.0,29.58,West,270,0.0,3.0,42,0.00,,,0.00,Rainwise IP-100,2013-03-09 23:51:00,
2013-03-09 18:57:00,38.9,23.0,29.58,West,270,0.0,3.0,48,0.00,,,0.00,Rainwise IP-100,2013-03-09 23:57:00,
2013-03-09 19:02:00,37.4,21.0,29.58,West,270,0.0,0.0,50,0.00,,,0.00,Rainwise IP-100,2013-03-10 00:02:00,
2013-03-09 19:07:00,36.1,21.0,29.58,West,270,0.0,1.0,53,0.00,,,0.00,Rainwise IP-100,2013-03-10 00:07:00,
2013-03-09 19:12:00,34.9,21.0,29.58,West,270,0.0,0.0,54,0.00,,,0.00,Rainwise IP-100,2013-03-10 00:12:00,
2013-03-09 19:17:00,34.2,23.0,29.58,West,270,0.0,0.0,59,0.00,,,0.00,Rainwise IP-100,2013-03-10 00:17:00,
2013-03-09 19:22:00,33.4,23.0,29.58,West,270,0.0,0.0,63,0.00,,,0.00,Rainwise IP-100,2013-03-10 00:22:00,
2013-03-09 19:27:00,32.7,23.0,29.58,West,270,0.0,0.0,64,0.00,,,0.00,Rainwise IP-100,2013-03-10 00:27:00,
2013-03-09 19:33:00,32.5,24.0,29.58,West,270,3.0,4.0,69,0.00,,,0.00,Rainwise IP-100,2013-03-10 00:33:00,
2013-03-09 19:38:00,32.9,24.0,29.58,West,270,3.0,3.0,66,0.00,,,0.00,Rainwise IP-100,2013-03-10 00:38:00,
2013-03-09 19:43:00,35.6,24.0,29.58,WNW,292,3.0,6.0,60,0.00,,,0.00,Rainwise IP-100,2013-03-10 00:43:00,
2013-03-09 19:48:00,36.9,23.0,29.58,WNW,292,2.0,5.0,55,0.00,,,0.00,Rainwise IP-100,2013-03-10 00:48:00,
2013-03-09 19:53:00,37.0,23.0,29.58,WNW,292,0.0,3.0,54,0.00,,,0.00,Rainwise IP-100,2013-03-10 00:53:00,
2013-03-09 19:58:00,36.3,23.0,29.58,WNW,292,0.0,0.0,56,0.00,,,0.00,Rainwise IP-100,2013-03-10 00:58:00,
2013-03-09 20:03:00,35.4,21.0,29.58,WNW,292,0.0,0.0,57,0.00,,,0.00,Rainwise IP-100,2013-03-10 01:03:00,
2013-03-09 20:09:00,33.9,23.0,29.58,WNW,292,0.0,0.0,61,0.00,,,0.00,Rainwise IP-100,2013-03-10 01:09:00,
2013-03-09 20:14:00,32.8,23.0,29.58,WNW,292,0.0,0.0,65,0.00,,,0.00,Rainwise IP-100,2013-03-10 01:14:00,
2013-03-09 20:19:00,31.9,23.0,29.58,WNW,292,0.0,1.0,65,0.00,,,0.00,Rainwise IP-100,2013-03-10 01:19:00,
2013-03-09 20:24:00,31.0,23.0,29.58,WNW,292,0.0,0.0,69,0.00,,,0.00,Rainwise IP-100,2013-03-10 01:24:00,
2013-03-09 20:29:00,30.3,23.0,29.58,WNW,292,0.0,0.0,70,0.00,,,0.00,Rainwise IP-100,2013-03-10 01:29:00,
2013-03-09 20:34:00,29.7,23.0,29.58,WNW,292,0.0,0.0,70,0.00,,,0.00,Rainwise IP-100,2013-03-10 01:34:00,
2013-03-09 20:39:00,29.4,23.0,29.58,WNW,292,0.0,0.0,74,0.00,,,0.00,Rainwise IP-100,2013-03-10 01:39:00,
2013-03-09 20:44:00,29.1,23.0,29.58,WNW,292,0.0,0.0,73,0.00,,,0.00,Rainwise IP-100,2013-03-10 01:44:00,
2013-03-09 20:50:00,28.6,23.0,29.57,WNW,292,0.0,0.0,77,0.00,,,0.00,Rainwise IP-100,2013-03-10 01:50:00,
2013-03-09 20:55:00,28.4,23.0,29.57,WNW,292,0.0,1.0,77,0.00,,,0.00,Rainwise IP-100,2013-03-10 01:55:00,
2013-03-09 21:00:00,28.6,23.0,29.57,WNW,292,0.0,1.0,75,0.00,,,0.00,Rainwise IP-100,2013-03-10 02:00:00,
2013-03-09 21:05:00,28.4,23.0,29.57,WNW,292,1.0,2.0,78,0.00,,,0.00,Rainwise IP-100,2013-03-10 02:05:00,
2013-03-09 21:10:00,28.3,23.0,29.57,WNW,292,0.0,2.0,77,0.00,,,0.00,Rainwise IP-100,2013-03-10 02:10:00,
2013-03-09 21:15:00,28.1,23.0,29.57,WNW,292,0.0,0.0,77,0.00,,,0.00,Rainwise IP-100,2013-03-10 02:15:00,
2013-03-09 21:20:00,27.6,23.0,29.57,WNW,292,0.0,0.0,78,0.00,,,0.00,Rainwise IP-100,2013-03-10 02:20:00,
2013-03-09 21:26:00,26.9,23.0,29.57,WNW,292,0.0,0.0,78,0.00,,,0.00,Rainwise IP-100,2013-03-10 02:26:00,
2013-03-09 21:31:00,26.6,23.0,29.57,WNW,292,0.0,0.0,82,0.00,,,0.00,Rainwise IP-100,2013-03-10 02:31:00,
2013-03-09 21:36:00,26.5,23.0,29.57,WNW,292,0.0,0.0,82,0.00,,,0.00,Rainwise IP-100,2013-03-10 02:36:00,
2013-03-09 21:41:00,26.2,23.0,29.57,WNW,292,0.0,0.0,83,0.00,,,0.00,Rainwise IP-100,2013-03-10 02:41:00,
2013-03-09 21:46:00,25.9,23.0,29.58,WNW,292,0.0,0.0,86,0.00,,,0.00,Rainwise IP-100,2013-03-10 02:46:00,
2013-03-09 21:51:00,25.7,23.0,29.58,WNW,292,0.0,0.0,84,0.00,,,0.00,Rainwise IP-100,2013-03-10 02:51:00,
2013-03-09 21:56:00,25.0,23.0,29.58,WNW,292,0.0,0.0,86,0.00,,,0.00,Rainwise IP-100,2013-03-10 02:56:00,
2013-03-09 22:01:00,24.9,23.0,29.58,WNW,292,0.0,1.0,84,0.00,,,0.00,Rainwise IP-100,2013-03-10 03:01:00,
2013-03-09 22:07:00,25.0,23.0,29.58,WNW,292,0.0,0.0,86,0.00,,,0.00,Rainwise IP-100,2013-03-10 03:07:00,
2013-03-09 22:12:00,25.5,23.0,29.58,WNW,292,0.0,2.0,88,0.00,,,0.00,Rainwise IP-100,2013-03-10 03:12:00,
2013-03-09 22:17:00,25.7,23.0,29.58,WNW,292,1.0,1.0,86,0.00,,,0.00,Rainwise IP-100,2013-03-10 03:17:00,
2013-03-09 22:22:00,25.4,23.0,29.58,WNW,292,0.0,2.0,86,0.00,,,0.00,Rainwise IP-100,2013-03-10 03:22:00,
2013-03-09 22:27:00,24.9,23.0,29.59,WNW,292,0.0,0.0,87,0.00,,,0.00,Rainwise IP-100,2013-03-10 03:27:00,
2013-03-09 22:32:00,24.9,23.0,29.59,WNW,292,0.0,2.0,88,0.00,,,0.00,Rainwise IP-100,2013-03-10 03:32:00,
2013-03-09 22:37:00,24.7,23.0,29.58,WNW,292,1.0,0.0,88,0.00,,,0.00,Rainwise IP-100,2013-03-10 03:37:00,
2013-03-09 22:43:00,24.6,23.0,29.58,WNW,292,0.0,2.0,89,0.00,,,0.00,Rainwise IP-100,2013-03-10 03:43:00,
2013-03-09 22:48:00,24.4,21.0,29.59,WNW,292,0.0,0.0,88,0.00,,,0.00,Rainwise IP-100,2013-03-10 03:48:00,
2013-03-09 22:53:00,24.7,23.0,29.59,WNW,292,0.0,2.0,89,0.00,,,0.00,Rainwise IP-100,2013-03-10 03:53:00,
2013-03-09 22:58:00,24.4,21.0,29.59,WNW,292,0.0,0.0,86,0.00,,,0.00,Rainwise IP-100,2013-03-10 03:58:00,
2013-03-09 23:03:00,24.4,21.0,29.59,WNW,292,0.0,1.0,88,0.00,,,0.00,Rainwise IP-100,2013-03-10 04:03:00,
2013-03-09 23:08:00,24.1,21.0,29.59,WNW,292,0.0,0.0,88,0.00,,,0.00,Rainwise IP-100,2013-03-10 04:08:00,
2013-03-09 23:13:00,23.6,23.0,29.59,WNW,292,0.0,0.0,91,0.00,,,0.00,Rainwise IP-100,2013-03-10 04:13:00,
2013-03-09 23:18:00,23.5,23.0,29.59,WNW,292,0.0,2.0,91,0.00,,,0.00,Rainwise IP-100,2013-03-10 04:18:00,
2013-03-09 23:24:00,23.5,23.0,29.59,WNW,292,1.0,2.0,93,0.00,,,0.00,Rainwise IP-100,2013-03-10 04:24:00,
2013-03-09 23:29:00,23.6,23.0,29.59,WNW,292,0.0,1.0,93,0.00,,,0.00,Rainwise IP-100,2013-03-10 04:29:00,
2013-03-09 23:34:00,23.4,21.0,29.59,WNW,292,1.0,2.0,92,0.00,,,0.00,Rainwise IP-100,2013-03-10 04:34:00,
2013-03-09 23:39:00,23.2,21.0,29.59,WNW,292,0.0,1.0,93,0.00,,,0.00,Rainwise IP-100,2013-03-10 04:39:00,
2013-03-09 23:44:00,22.9,21.0,29.59,WNW,292,0.0,0.0,92,0.00,,,0.00,Rainwise IP-100,2013-03-10 04:44:00,
2013-03-09 23:49:00,22.7,21.0,29.59,WNW,292,0.0,2.0,95,0.00,,,0.00,Rainwise IP-100,2013-03-10 04:49:00,
2013-03-09 23:54:00,22.8,21.0,29.60,WNW,292,0.0,2.0,94,0.00,,,0.00,Rainwise IP-100,2013-03-10 04:54:00,